< < Back
Terminal Aerodrome Forecast


Current Version              Previous Versions:   1  2  3  4  5  6  7  8  9  

Terminal Aerodrome Forecast

969
FTUS42 KJAX 191700
TAFJAX
TAF
KJAX 191732Z 1918/2018 08004KT P6SM SCT100 BKN200
     FM200200 00000KT P6SM SCT050 BKN100 OVC150
     FM200900 00000KT 5SM BR SCT050 BKN100 OVC150
     FM201500 05004KT P6SM SCT050 BKN100 OVC150=



Latest METAR

444
SAUS80 KWBC 201600 CCA
MTRJAX
METAR KJAX 201556Z 05007KT 10SM BKN100 BKN150 17/12 A3016 RMK AO2 SLP212
T01670117


USA.gov is the U.S. government's official web portal to all federal, state and local government web resources and services.